[[{"header":{"parameterUnit":"m.s-1","parameterCategory":2,"la1":30.2991,"la2":30.254,"lo1":-89.0895,"lo2":-89.0444,"dx":0.0017,"dy":0.0017,"nx":28,"ny":28,"refTime":"2023-01-22T03:00:00:Z","depth":"0","parameterNumber":2,"parameterNumberName":"U-component_of_CURRENTS"},"data":[0,0,0,0,0,0,0,0,0,0,0,0,0,0,0,0,0,0,0,0,0,0,0,0,0,0,0,0,0,0,0,0,0,0,0,0,0,0,0,0,0,0,0,0,0,0,0,0,0,0,0,0,0,0,0,0,0,0,-0.2112,-0.2113,0,-0.2169,-0.2169,-0.217,-0.2106,-0.2104,-0.2102,-0.2099,-0.2042,-0.2043,-0.2044,0,0,0,0,0,0,0,0,0,0,0,0,0,-0.2031,-0.2033,-0.2112,-0.2113,-0.2114,-0.2169,-0.2169,-0.217,-0.2107,-0.2104,-0.2101,-0.2098,-0.2042,-0.2043,-0.2044,0,0,0,0,0,0,0,0,0,0,0,0,0,-0.2074,-0.2033,-0.2112,-0.2089,-0.2088,-0.2169,-0.2169,-0.217,-0.2107,-0.2104,-0.21,-0.2097,-0.2042,-0.2043,-0.2044,-0.212,0,0,-0.2047,-0.2047,0,0,0,0,0,0,0,0,-0.2072,-0.2077,-0.2092,-0.2091,-0.209,-0.2127,-0.212,-0.2148,-0.2108,-0.2099,-0.2099,-0.2095,-0.2063,-0.2063,-0.2081,-0.2118,-0.2115,-0.2047,-0.2048,-0.2048,-0.2048,0,0,0,0,0,0,0,-0.2069,-0.2075,-0.2134,-0.2093,-0.2092,-0.2104,-0.2106,-0.2126,-0.2098,-0.21,-0.2095,-0.2104,-0.2061,-0.2081,-0.2079,-0.2114,-0.2047,-0.2048,-0.2048,-0.2049,-0.2149,-0.2151,0,0,0,0,0,0,-0.2063,-0.2072,-0.2132,-0.2136,-0.2073,-0.2108,-0.211,-0.2118,-0.21,-0.2095,-0.2107,-0.2101,-0.2081,-0.2078,-0.2077,-0.2103,-0.2048,-0.2049,-0.205,-0.2147,-0.2149,-0.2151,0,0,0,0,0,0,-0.2061,-0.2068,-0.213,-0.2105,-0.2114,-0.2113,-0.2123,-0.2121,-0.2124,-0.2107,-0.2098,-0.2109,-0.2078,-0.2075,-0.2093,-0.2101,-0.2049,-0.205,-0.2144,-0.2148,-0.215,-0.2194,0,0,0,0,0,0,-0.2059,-0.2067,-0.207,-0.2105,-0.2115,-0.2167,-0.2127,-0.2125,-0.2136,-0.2128,-0.2107,-0.2099,-0.2075,-0.2092,-0.2095,-0.2102,-0.2051,-0.2142,-0.2146,-0.2149,-0.219,-0.2198,-0.2205,0,0,0,0,0,-0.2056,-0.2067,-0.2069,-0.2077,-0.2119,-0.2169,-0.2175,-0.2162,-0.2139,-0.215,-0.214,-0.2098,-0.2117,-0.2096,-0.2098,-0.2105,-0.214,-0.2145,-0.2149,-0.2187,-0.2197,-0.2205,0,0,0,0,0,0,-0.2026,-0.2063,-0.2066,-0.2085,-0.2122,-0.2157,-0.2166,-0.217,-0.2178,-0.2162,-0.2136,-0.213,-0.2149,-0.2137,-0.2114,-0.2149,-0.2118,-0.2124,-0.2146,-0.2156,-0.2163,-0.2153,-0.2052,0,0,0,0,0,-0.2028,-0.2039,-0.2088,-0.21,-0.2122,-0.215,-0.2167,-0.217,-0.2185,-0.2183,-0.2173,-0.2167,-0.218,-0.2171,-0.2183,-0.2211,-0.2156,-0.2216,-0.2223,-0.223,-0.2226,-0.2194,-0.2197,-0.2167,-0.2167,-0.2167,0,0,-0.2017,-0.204,-0.2044,-0.2094,-0.2119,-0.2159,-0.215,-0.2182,-0.2204,-0.218,-0.2195,-0.2201,-0.2199,-0.2223,-0.2229,-0.2203,-0.2201,-0.2236,-0.2241,-0.2233,-0.2199,-0.2201,-0.2204,-0.217,-0.2169,-0.2169,0,0,-0.2009,-0.2029,-0.2042,-0.2083,-0.2131,-0.216,-0.2171,-0.2217,-0.2221,-0.2263,-0.2246,-0.2262,-0.2278,-0.2277,-0.2279,-0.2344,-0.2253,-0.2341,-0.2356,-0.2326,-0.2327,-0.2327,-0.2209,-0.2199,-0.2331,-0.2332,-0.2332,0,-0.1997,-0.2021,-0.2055,-0.2091,-0.2119,-0.216,-0.2193,-0.2227,-0.2268,-0.2274,-0.2264,-0.2301,-0.2304,-0.2325,-0.2348,-0.2357,-0.2293,-0.2316,-0.2332,-0.2331,-0.2331,-0.2211,-0.2199,-0.2334,-0.2334,-0.2334,-0.2333,0,-0.2009,-0.2034,-0.205,-0.2104,-0.2143,-0.2181,-0.2239,-0.2269,-0.2284,-0.2306,-0.2336,-0.2358,-0.2362,-0.238,-0.2386,-0.2394,-0.233,-0.2351,-0.2298,-0.2336,-0.2207,-0.2193,-0.2338,-0.2337,-0.2336,-0.2336,0,0,-0.197,-0.2043,-0.2047,-0.2067,-0.2154,-0.2181,-0.2237,-0.2289,-0.2296,-0.2344,-0.2348,-0.2407,-0.2403,-0.2408,-0.2415,-0.2404,-0.2347,-0.2377,-0.2374,-0.2239,-0.2201,-0.2026,-0.1993,-0.2365,-0.2364,-0.2364,-0.209,0,-0.197,-0.2015,-0.2062,-0.2105,-0.2136,-0.2199,-0.2239,-0.2288,-0.232,-0.2338,-0.2372,-0.2383,-0.2416,-0.2409,-0.2414,-0.2383,-0.2323,-0.2414,-0.2202,-0.2194,-0.2019,-0.1978,-0.1842,-0.1578,-0.2077,-0.2074,-0.2073,0,-0.1971,-0.1998,-0.2036,-0.2091,-0.211,-0.2142,-0.2191,-0.2235,-0.2287,-0.2307,-0.2334,-0.2351,-0.2362,-0.2383,-0.2308,-0.2359,-0.2276,-0.2238,-0.2227,-0.2041,-0.1997,-0.1634,-0.1534,-0.1547,-0.2051,-0.2053,-0.2055,0,-0.191,-0.1978,-0.1995,-0.2023,-0.2099,-0.2113,-0.2149,-0.2208,-0.2222,-0.2271,-0.2257,-0.2296,-0.2265,-0.224,-0.2167,-0.223,-0.2037,-0.2108,-0.1848,-0.1831,-0.1662,-0.1632,-0.1535,-0.2011,-0.2012,-0.2013,-0.2013,0,-0.1894,-0.1906,-0.196,-0.1971,-0.1976,-0.2051,-0.2056,-0.2105,-0.2145,-0.2127,-0.2215,-0.2177,-0.2231,-0.214,-0.211,-0.1896,-0.1969,-0.1812,-0.1754,-0.1668,-0.1642,-0.1605,-0.1685,-0.2002,-0.2004,-0.2006,-0.2008,0,-0.1832,-0.1874,-0.1889,-0.1942,-0.1948,-0.1948,-0.1982,-0.1983,-0.2031,-0.2004,-0.2007,-0.2043,-0.1926,-0.19,-0.1804,-0.1748,-0.1568,-0.1511,-0.1357,-0.1286,-0.11,-0.1188,-0.1048,-0.1015,-0.1197,-0.1191,-0.1186,0,-0.1807,-0.1807,-0.1839,-0.183,-0.1848,-0.1853,-0.1852,-0.1914,-0.1906,-0.1895,-0.1859,-0.1763,-0.1679,-0.145,-0.1326,-0.1148,-0.1271,-0.0917,-0.1045,-0.1025,-0.1083,-0.1214,-0.121,-0.0811,-0.0803,-0.0797,-0.0792,0,-0.1749,-0.1757,-0.1764,-0.1739,-0.1727,-0.1716,-0.1711,-0.1683,-0.1725,-0.1685,-0.1591,-0.1527,-0.1294,-0.1061,-0.0828,-0.075,-0.0919,-0.0779,-0.0828,-0.081,-0.0879,-0.0838,-0.1014,-0.0736,-0.0742,-0.0746,-0.0749,-0.0751,-0.1688,-0.167,-0.1664,-0.1639,-0.1618,-0.1563,-0.1505,-0.1491,-0.1427,-0.1329,-0.1338,-0.1157,-0.0893,-0.056,-0.0491,-0.0262,-0.0455,-0.0264,-0.0369,-0.05,-0.0494,-0.0492,-0.013,-0.0132,-0.0134,-0.0135,-0.0136,0,-0.1599,-0.1583,-0.1561,-0.1509,-0.1444,-0.1468,-0.1396,-0.1316,-0.1186,-0.1077,-0.0975,-0.0617,-0.0353,-0.0179,0.0125,0.0131,0.001,0.0076,-0.013,-0.0145,-0.0157,-0.0167,0.0286,0.0286,0.0286,0.0286,0.0286,0.0286,-0.1544,-0.1493,-0.1488,-0.1354,-0.1308,-0.1175,-0.1109,-0.0998,-0.0883,-0.06,-0.0368,-0.0238,0.0027,0.0168,0.0271,0.0253,0.0082,0.0111,-0.0015,-0.0089,-0.0133,-0.0175,-0.0203,0.0235,0.0235,0.0042,0.004,0.0039]},{"header":{"parameterUnit":"m.s-1","parameterCategory":2,"la1":30.2991,"la2":30.254,"lo1":-89.0895,"lo2":-89.0444,"dx":0.0017,"dy":0.0017,"nx":28,"ny":28,"refTime":"2023-01-22T03:00:00:Z","depth":"0","parameterNumber":3,"parameterNumberName":"V-component_of_CURRENTS"},"data":[0,0,0,0,0,0,0,0,0,0,0,0,0,0,0,0,0,0,0,0,0,0,0,0,0,0,0,0,0,0,0,0,0,0,0,0,0,0,0,0,0,0,0,0,0,0,0,0,0,0,0,0,0,0,0,0,0,0,-0.1237,-0.1236,0,-0.1138,-0.1136,-0.1135,-0.105,-0.1049,-0.1049,-0.1048,-0.0848,-0.0843,-0.0838,0,0,0,0,0,0,0,0,0,0,0,0,0,-0.1275,-0.1275,-0.1237,-0.1236,-0.1236,-0.1138,-0.1136,-0.1135,-0.105,-0.1049,-0.1049,-0.1048,-0.0849,-0.0844,-0.0838,0,0,0,0,0,0,0,0,0,0,0,0,0,-0.1221,-0.1275,-0.1237,-0.1185,-0.118,-0.1139,-0.1136,-0.1134,-0.105,-0.1049,-0.1048,-0.1048,-0.0851,-0.0844,-0.0837,-0.0807,0,0,-0.0814,-0.0811,0,0,0,0,0,0,0,0,-0.1224,-0.1219,-0.1194,-0.1189,-0.1183,-0.111,-0.1077,-0.1021,-0.105,-0.1094,-0.1048,-0.1047,-0.093,-0.0916,-0.0893,-0.0797,-0.0789,-0.0814,-0.0809,-0.0806,-0.0804,0,0,0,0,0,0,0,-0.1228,-0.1223,-0.1193,-0.1193,-0.1186,-0.1141,-0.1132,-0.1065,-0.1011,-0.109,-0.1085,-0.1082,-0.0925,-0.0901,-0.0888,-0.0786,-0.0814,-0.0808,-0.0803,-0.08,-0.0628,-0.0628,0,0,0,0,0,0,-0.1256,-0.1227,-0.1196,-0.119,-0.1208,-0.1141,-0.1132,-0.113,-0.1014,-0.0998,-0.1083,-0.1079,-0.0913,-0.0896,-0.088,-0.0834,-0.0806,-0.0799,-0.0795,-0.0628,-0.0628,-0.0628,0,0,0,0,0,0,-0.1257,-0.1254,-0.12,-0.121,-0.1201,-0.1143,-0.1141,-0.1129,-0.1097,-0.1011,-0.0991,-0.1064,-0.0912,-0.0891,-0.0817,-0.0825,-0.0796,-0.0789,-0.0629,-0.0628,-0.0628,-0.0743,0,0,0,0,0,0,-0.1258,-0.1255,-0.1257,-0.1212,-0.1201,-0.1183,-0.1141,-0.1127,-0.1099,-0.1092,-0.0988,-0.0969,-0.091,-0.0829,-0.081,-0.0815,-0.0784,-0.0629,-0.0628,-0.0628,-0.0739,-0.0746,-0.0753,0,0,0,0,0,-0.126,-0.1263,-0.1257,-0.1253,-0.1208,-0.1184,-0.1174,-0.1126,-0.11,-0.1093,-0.1018,-0.0972,-0.0813,-0.0823,-0.0801,-0.0804,-0.0629,-0.0629,-0.0628,-0.0736,-0.0745,-0.0752,0,0,0,0,0,0,-0.1268,-0.1254,-0.1246,-0.1242,-0.1223,-0.1172,-0.1157,-0.1129,-0.1066,-0.105,-0.0965,-0.0941,-0.0883,-0.0823,-0.0835,-0.0752,-0.0715,-0.0711,-0.0805,-0.0812,-0.0819,-0.0855,-0.0778,0,0,0,0,0,-0.1279,-0.1281,-0.126,-0.1256,-0.125,-0.1205,-0.1187,-0.116,-0.1105,-0.1076,-0.101,-0.0931,-0.0865,-0.0824,-0.0758,-0.0707,-0.0628,-0.0695,-0.0701,-0.0708,-0.0721,-0.0613,-0.0612,-0.0627,-0.0627,-0.0627,0,0,-0.1277,-0.1273,-0.1271,-0.126,-0.1235,-0.1235,-0.119,-0.1168,-0.1161,-0.1063,-0.102,-0.0952,-0.0857,-0.0806,-0.0775,-0.0756,-0.0656,-0.0707,-0.0714,-0.0724,-0.0612,-0.0611,-0.061,-0.0626,-0.0626,-0.0627,0,0,-0.1282,-0.1278,-0.1283,-0.1281,-0.1265,-0.1247,-0.1248,-0.1206,-0.1177,-0.1136,-0.1064,-0.1006,-0.0904,-0.0847,-0.0802,-0.0802,-0.0698,-0.0776,-0.0835,-0.073,-0.0728,-0.0726,-0.0605,-0.0591,-0.0777,-0.0777,-0.0777,0,-0.1278,-0.1293,-0.1279,-0.1291,-0.1294,-0.1261,-0.1271,-0.1244,-0.1184,-0.1166,-0.1136,-0.0998,-0.0928,-0.086,-0.0869,-0.0821,-0.0733,-0.0817,-0.0741,-0.0737,-0.0732,-0.0609,-0.0592,-0.0782,-0.0782,-0.0781,-0.0781,0,-0.1296,-0.1309,-0.1312,-0.1327,-0.1329,-0.1331,-0.1314,-0.1305,-0.1273,-0.1242,-0.1176,-0.1079,-0.1001,-0.097,-0.0922,-0.086,-0.0796,-0.0766,-0.0728,-0.0738,-0.0606,-0.0587,-0.079,-0.0788,-0.0787,-0.0785,0,0,-0.1287,-0.1317,-0.1321,-0.134,-0.1352,-0.1353,-0.1363,-0.1355,-0.1352,-0.1292,-0.1266,-0.1171,-0.1123,-0.1069,-0.0991,-0.0911,-0.0807,-0.0838,-0.083,-0.0732,-0.0549,-0.0518,-0.0493,-0.0756,-0.0754,-0.0752,-0.0463,0,-0.1304,-0.1336,-0.1353,-0.1389,-0.1405,-0.1409,-0.1421,-0.1413,-0.1387,-0.1356,-0.1265,-0.1201,-0.1156,-0.1109,-0.1031,-0.086,-0.0763,-0.0887,-0.0542,-0.0532,-0.0515,-0.0473,-0.0419,-0.0159,-0.0443,-0.044,-0.0437,0,-0.1326,-0.1347,-0.1382,-0.1426,-0.1434,-0.1456,-0.1481,-0.1484,-0.1451,-0.1423,-0.1365,-0.1288,-0.1175,-0.1128,-0.0857,-0.0932,-0.0762,-0.0627,-0.0611,-0.0536,-0.0466,-0.0196,-0.0111,0.0003,-0.0406,-0.0408,-0.0411,0,-0.133,-0.1374,-0.1404,-0.1421,-0.146,-0.1482,-0.1502,-0.1501,-0.1503,-0.1455,-0.1431,-0.1303,-0.1202,-0.1006,-0.0768,-0.0791,-0.0448,-0.0433,-0.0236,-0.023,-0.0095,-0.0082,0.0125,-0.0232,-0.0232,-0.0233,-0.0234,0,-0.1353,-0.138,-0.141,-0.1428,-0.1471,-0.1494,-0.153,-0.1537,-0.153,-0.1528,-0.1455,-0.1395,-0.1165,-0.0963,-0.0756,-0.0434,-0.0424,-0.0234,-0.0155,-0.0131,-0.0126,0.0049,0.0046,-0.0222,-0.0225,-0.0227,-0.0229,0,-0.1362,-0.1379,-0.1417,-0.1459,-0.1475,-0.1505,-0.1557,-0.158,-0.1567,-0.1557,-0.1537,-0.1414,-0.1162,-0.0914,-0.056,-0.0392,-0.0019,0.0011,0.002,0.0092,0.0333,0.0319,0.0561,0.0655,0.0276,0.0278,0.0281,0,-0.1368,-0.1385,-0.1433,-0.1458,-0.1482,-0.1528,-0.1564,-0.1591,-0.1614,-0.1564,-0.1549,-0.1338,-0.1204,-0.0692,-0.034,0.0054,0.0123,0.0336,0.0275,0.0362,0.0408,0.0367,0.0424,0.0443,0.0446,0.0449,0.0451,0,-0.138,-0.1393,-0.1422,-0.1468,-0.1512,-0.1566,-0.1614,-0.1638,-0.1662,-0.1645,-0.1571,-0.1462,-0.1009,-0.0586,-0.0097,0.0148,0.0381,0.0399,0.0512,0.0561,0.0514,0.0636,0.0239,0.0474,0.0472,0.047,0.0469,0.0468,-0.1379,-0.1403,-0.1433,-0.1479,-0.1532,-0.1589,-0.1612,-0.1656,-0.168,-0.1621,-0.1557,-0.1303,-0.0766,-0.0093,0.015,0.0677,0.0581,0.0824,0.0813,0.0774,0.0807,0.044,0.0725,0.0724,0.0723,0.0723,0.0722,0,-0.1372,-0.1399,-0.1443,-0.1497,-0.1542,-0.1574,-0.1634,-0.1627,-0.1632,-0.152,-0.1426,-0.0805,-0.0289,0.0233,0.0908,0.1104,0.1128,0.1183,0.1161,0.1213,0.0955,0.0901,0.1207,0.1207,0.1207,0.1207,0.1207,0.1207,-0.1364,-0.1398,-0.1424,-0.1483,-0.152,-0.1543,-0.156,-0.1539,-0.1443,-0.1139,-0.0776,-0.0504,0.0182,0.0808,0.1357,0.1437,0.154,0.1484,0.1545,0.1366,0.1332,0.1299,0.1252,0.1627,0.1627,0.1833,0.1835,0.1837]}],[{"header":{"parameterUnit":"m.s-1","parameterCategory":2,"la1":30.2991,"la2":30.254,"lo1":-89.0895,"lo2":-89.0444,"dx":0.0017,"dy":0.0017,"nx":28,"ny":28,"refTime":"2023-01-22T03:00:00:Z","depth":"2","parameterNumber":2,"parameterNumberName":"U-component_of_CURRENTS"},"data":[0,0,0,0,0,0,0,0,0,0,0,0,0,0,0,0,0,0,0,0,0,0,0,0,0,0,0,0,0,0,0,0,0,0,0,0,0,0,0,0,0,0,0,0,0,0,0,0,0,0,0,0,0,0,0,0,0,0,-0.2464,-0.2464,0,-0.2481,-0.2481,-0.2481,-0.2587,-0.2589,-0.2592,-0.2595,-0.2682,-0.2682,-0.2682,0,0,0,0,0,0,0,0,0,0,0,0,0,-0.2446,-0.2447,-0.2464,-0.2464,-0.2465,-0.2481,-0.2481,-0.2481,-0.2586,-0.259,-0.2593,-0.2596,-0.2683,-0.2682,-0.2682,0,0,0,0,0,0,0,0,0,0,0,0,0,-0.2456,-0.2447,-0.2464,-0.2521,-0.2526,-0.2481,-0.2481,-0.2481,-0.2586,-0.259,-0.2594,-0.2598,-0.2683,-0.2682,-0.2682,-0.2599,0,0,-0.2681,-0.2681,0,0,0,0,0,0,0,0,-0.2456,-0.2457,-0.2512,-0.2517,-0.2522,-0.2537,-0.2507,-0.2524,-0.2585,-0.2561,-0.2595,-0.26,-0.2638,-0.2642,-0.2633,-0.2603,-0.2606,-0.2681,-0.2681,-0.2681,-0.2681,0,0,0,0,0,0,0,-0.2455,-0.2456,-0.2469,-0.2512,-0.2518,-0.2519,-0.2525,-0.251,-0.2577,-0.2564,-0.2572,-0.2575,-0.2642,-0.2633,-0.2636,-0.2608,-0.2681,-0.2681,-0.2681,-0.2681,-0.2578,-0.2576,0,0,0,0,0,0,-0.2455,-0.2455,-0.2469,-0.247,-0.25,-0.2516,-0.2523,-0.2527,-0.2576,-0.2587,-0.2571,-0.258,-0.2631,-0.2636,-0.264,-0.2693,-0.2681,-0.268,-0.268,-0.2581,-0.2578,-0.2575,0,0,0,0,0,0,-0.2455,-0.2456,-0.2468,-0.2464,-0.2466,-0.2513,-0.2516,-0.2525,-0.2606,-0.2581,-0.2594,-0.2654,-0.2635,-0.264,-0.2651,-0.2692,-0.268,-0.268,-0.2584,-0.258,-0.2577,-0.2703,0,0,0,0,0,0,-0.2454,-0.2456,-0.2498,-0.2464,-0.2467,-0.2482,-0.2512,-0.2523,-0.2597,-0.261,-0.2653,-0.2661,-0.2638,-0.2651,-0.2651,-0.2691,-0.268,-0.2587,-0.2582,-0.2578,-0.2702,-0.2704,-0.2706,0,0,0,0,0,-0.2453,-0.2488,-0.25,-0.2504,-0.251,-0.2483,-0.2484,-0.2529,-0.2598,-0.2622,-0.2634,-0.2664,-0.262,-0.2649,-0.2649,-0.2691,-0.259,-0.2584,-0.2578,-0.2702,-0.2704,-0.2706,0,0,0,0,0,0,-0.2519,-0.25,-0.2514,-0.2549,-0.2535,-0.2503,-0.2534,-0.2574,-0.2604,-0.2643,-0.2642,-0.2646,-0.2658,-0.2633,-0.2666,-0.263,-0.2605,-0.2599,-0.2699,-0.2701,-0.2703,-0.2737,-0.268,0,0,0,0,0,-0.2543,-0.2564,-0.2533,-0.2567,-0.2557,-0.2563,-0.258,-0.2607,-0.2609,-0.2634,-0.2648,-0.2641,-0.2611,-0.2635,-0.2587,-0.2595,-0.2531,-0.2606,-0.2608,-0.2611,-0.2627,-0.2565,-0.2565,-0.2557,-0.2557,-0.2557,0,0,-0.2588,-0.2573,-0.2597,-0.2582,-0.2574,-0.2556,-0.2585,-0.2617,-0.263,-0.2632,-0.2669,-0.2651,-0.2603,-0.2588,-0.2594,-0.2601,-0.2561,-0.2604,-0.2608,-0.2623,-0.2559,-0.2561,-0.2563,-0.2553,-0.2553,-0.2554,0,0,-0.2625,-0.2655,-0.2662,-0.2642,-0.2635,-0.2618,-0.2648,-0.264,-0.2672,-0.268,-0.267,-0.2695,-0.2653,-0.2638,-0.2622,-0.2606,-0.2556,-0.2578,-0.2658,-0.2597,-0.26,-0.2601,-0.2466,-0.2455,-0.2604,-0.2605,-0.2605,0,-0.2683,-0.2679,-0.2665,-0.2639,-0.2638,-0.2654,-0.2652,-0.2654,-0.2665,-0.2693,-0.2708,-0.268,-0.2678,-0.2671,-0.2662,-0.2628,-0.2539,-0.2676,-0.2609,-0.2609,-0.2609,-0.247,-0.2456,-0.261,-0.2609,-0.2609,-0.2608,0,-0.2685,-0.2701,-0.2697,-0.2666,-0.2659,-0.2667,-0.2641,-0.2666,-0.2716,-0.2737,-0.2765,-0.2738,-0.2734,-0.2731,-0.2706,-0.2699,-0.2613,-0.261,-0.263,-0.2619,-0.247,-0.2453,-0.2618,-0.2616,-0.2614,-0.2613,0,0,-0.2741,-0.2713,-0.2715,-0.2707,-0.2685,-0.267,-0.2677,-0.2689,-0.2733,-0.2762,-0.2788,-0.2798,-0.2833,-0.2809,-0.2789,-0.2772,-0.2697,-0.2706,-0.27,-0.2616,-0.2488,-0.2347,-0.2313,-0.2683,-0.2682,-0.2682,-0.2366,0,-0.2749,-0.2737,-0.2713,-0.2709,-0.2695,-0.2689,-0.2688,-0.2715,-0.2748,-0.2761,-0.2796,-0.2791,-0.2841,-0.2835,-0.2842,-0.2713,-0.2666,-0.2778,-0.2471,-0.246,-0.2377,-0.2296,-0.2203,-0.1909,-0.235,-0.2347,-0.2345,0,-0.2722,-0.2732,-0.2729,-0.273,-0.2724,-0.2711,-0.273,-0.2742,-0.2767,-0.2797,-0.2846,-0.2828,-0.2815,-0.2829,-0.2698,-0.2756,-0.2638,-0.2553,-0.2538,-0.2363,-0.2291,-0.1994,-0.1862,-0.2316,-0.2319,-0.2321,-0.2323,0,-0.2717,-0.2726,-0.2736,-0.2729,-0.2726,-0.2722,-0.2737,-0.2771,-0.2772,-0.2796,-0.278,-0.2804,-0.2737,-0.2665,-0.2528,-0.2587,-0.2317,-0.2366,-0.212,-0.2105,-0.1945,-0.1918,-0.2247,-0.2247,-0.2248,-0.2249,-0.225,0,-0.269,-0.2706,-0.2735,-0.272,-0.2728,-0.2741,-0.2742,-0.2767,-0.2776,-0.2746,-0.2797,-0.2726,-0.2691,-0.254,-0.2461,-0.2212,-0.2258,-0.21,-0.2022,-0.1972,-0.1953,-0.2265,-0.2271,-0.2237,-0.224,-0.2242,-0.2244,0,-0.2654,-0.2677,-0.2664,-0.269,-0.2692,-0.2693,-0.2683,-0.2692,-0.2727,-0.2652,-0.2628,-0.2599,-0.2408,-0.2314,-0.2113,-0.2063,-0.1875,-0.1767,-0.1673,-0.1592,-0.1713,-0.1729,-0.1465,-0.1458,-0.1451,-0.1446,-0.1442,0,-0.2646,-0.2639,-0.2621,-0.2583,-0.2577,-0.2587,-0.2579,-0.264,-0.2622,-0.255,-0.248,-0.2302,-0.2142,-0.182,-0.1669,-0.1432,-0.1587,-0.1233,-0.1374,-0.1685,-0.1636,-0.1662,-0.1685,-0.1169,-0.1162,-0.1157,-0.1153,0,-0.2601,-0.2574,-0.2537,-0.2485,-0.2445,-0.243,-0.242,-0.2382,-0.2406,-0.2328,-0.2167,-0.2028,-0.1734,-0.1462,-0.1194,-0.1083,-0.1288,-0.1117,-0.1428,-0.1406,-0.1387,-0.1346,-0.1382,-0.1107,-0.1112,-0.1115,-0.1118,-0.112,-0.253,-0.2484,-0.2398,-0.2332,-0.2304,-0.2239,-0.2159,-0.214,-0.2046,-0.1871,-0.1847,-0.1588,-0.1485,-0.1008,-0.0847,-0.0729,-0.085,-0.0859,-0.0883,-0.091,-0.0958,-0.0933,-0.0569,-0.057,-0.0572,-0.0573,-0.0574,0,-0.2386,-0.2323,-0.2264,-0.2146,-0.2071,-0.2102,-0.2015,-0.1906,-0.1724,-0.1573,-0.1396,-0.1123,-0.0862,-0.0753,-0.0491,-0.0408,-0.0485,-0.0398,-0.0552,-0.0595,-0.0634,-0.0678,-0.0208,-0.0207,-0.0206,-0.0205,0,0,-0.2279,-0.2151,-0.212,-0.1923,-0.1865,-0.171,-0.1619,-0.1478,-0.1331,-0.1108,-0.0935,-0.0826,-0.0749,-0.0506,-0.0416,-0.0278,-0.0444,-0.0239,-0.0534,-0.0761,-0.08,-0.0891,-0.1003,0,0,0,0,0]},{"header":{"parameterUnit":"m.s-1","parameterCategory":2,"la1":30.2991,"la2":30.254,"lo1":-89.0895,"lo2":-89.0444,"dx":0.0017,"dy":0.0017,"nx":28,"ny":28,"refTime":"2023-01-22T03:00:00:Z","depth":"2","parameterNumber":3,"parameterNumberName":"V-component_of_CURRENTS"},"data":[0,0,0,0,0,0,0,0,0,0,0,0,0,0,0,0,0,0,0,0,0,0,0,0,0,0,0,0,0,0,0,0,0,0,0,0,0,0,0,0,0,0,0,0,0,0,0,0,0,0,0,0,0,0,0,0,0,0,0.0166,0.0166,0,0.0198,0.0198,0.0198,0.0185,0.0184,0.0184,0.0183,0.0231,0.0233,0.0235,0,0,0,0,0,0,0,0,0,0,0,0,0,0.0177,0.0177,0.0166,0.0166,0.0167,0.0197,0.0198,0.0198,0.0185,0.0184,0.0184,0.0183,0.0231,0.0233,0.0235,0,0,0,0,0,0,0,0,0,0,0,0,0,0.0185,0.0176,0.0166,0.0165,0.0166,0.0197,0.0198,0.0198,0.0185,0.0184,0.0183,0.0183,0.023,0.0233,0.0235,0.027,0,0,0.0244,0.0245,0,0,0,0,0,0,0,0,0.0185,0.0185,0.0165,0.0165,0.0166,0.0188,0.022,0.0224,0.0185,0.0176,0.0183,0.0182,0.022,0.0224,0.0229,0.0273,0.0275,0.0244,0.0246,0.0247,0.0248,0,0,0,0,0,0,0,0.0184,0.0184,0.0177,0.0166,0.0166,0.0192,0.0192,0.0221,0.0202,0.0177,0.0176,0.0183,0.022,0.0226,0.023,0.0275,0.0244,0.0246,0.0248,0.0249,0.0331,0.0331,0,0,0,0,0,0,0.018,0.0183,0.0176,0.0178,0.0175,0.0193,0.0192,0.018,0.0201,0.0204,0.0184,0.0182,0.0222,0.0227,0.0232,0.0229,0.0247,0.0249,0.0251,0.033,0.0331,0.0332,0,0,0,0,0,0,0.018,0.0178,0.0174,0.0184,0.0185,0.0193,0.0181,0.0181,0.0154,0.0206,0.0209,0.0152,0.0221,0.0228,0.0227,0.0232,0.0251,0.0253,0.033,0.0331,0.0331,0.0252,0,0,0,0,0,0,0.018,0.0178,0.015,0.0182,0.0184,0.0164,0.0182,0.0183,0.0163,0.016,0.0181,0.0186,0.0221,0.0223,0.023,0.0236,0.0255,0.0329,0.033,0.0331,0.0254,0.025,0.0247,0,0,0,0,0,0.018,0.0142,0.0148,0.0146,0.0151,0.0163,0.0165,0.0169,0.0161,0.0141,0.0156,0.0184,0.0236,0.0224,0.0233,0.024,0.0329,0.033,0.0331,0.0256,0.0251,0.0247,0,0,0,0,0,0,0.0113,0.0138,0.0145,0.011,0.0126,0.0161,0.0132,0.0147,0.0143,0.0127,0.0174,0.0181,0.0192,0.0225,0.0212,0.0271,0.0294,0.0297,0.0234,0.023,0.0227,0.0196,0.0258,0,0,0,0,0,0.0093,0.0075,0.0108,0.0075,0.0074,0.0098,0.0096,0.0105,0.0118,0.0112,0.014,0.0173,0.0212,0.022,0.0259,0.0274,0.0298,0.0293,0.0289,0.0286,0.0269,0.0255,0.0247,0.0335,0.0335,0.0335,0,0,0.0039,0.0068,0.0042,0.0061,0.0064,0.0063,0.0091,0.0072,0.008,0.0121,0.0116,0.0154,0.0213,0.0238,0.0248,0.0257,0.029,0.0287,0.0283,0.0268,0.0255,0.0246,0.0238,0.0336,0.0336,0.0336,0,0,-0.003,-0.0037,-0.0065,-0.0047,-0.0027,0.0002,-0.0011,0.0015,0.0022,0.0033,0.0077,0.0104,0.0154,0.0203,0.0236,0.0234,0.027,0.0256,0.0207,0.0193,0.0185,0.0177,0.0258,0.0258,0.0253,0.0252,0.0252,0,-0.0084,-0.0111,-0.0075,-0.0073,-0.0072,-0.0032,-0.0054,-0.0028,0.0001,0.001,0.0016,0.0077,0.0143,0.017,0.0193,0.0224,0.0239,0.0213,0.0183,0.0176,0.017,0.0253,0.0254,0.0249,0.0249,0.0249,0.025,0,-0.0143,-0.0179,-0.02,-0.0176,-0.016,-0.0187,-0.0126,-0.0119,-0.0099,-0.0061,-0.0051,0.001,0.0035,0.0089,0.0149,0.0151,0.0189,0.0176,0.0182,0.0155,0.0248,0.025,0.0243,0.0245,0.0246,0.0247,0,0,-0.0207,-0.0244,-0.025,-0.027,-0.0224,-0.0217,-0.0199,-0.0168,-0.0192,-0.0142,-0.0172,-0.0063,-0.0062,-0.0025,0.0034,0.0058,0.0087,0.0095,0.0097,0.0155,0.0105,0.0175,0.0186,0.0036,0.0035,0.0033,0.021,0,-0.0268,-0.0328,-0.0303,-0.0354,-0.0381,-0.0326,-0.0311,-0.0263,-0.0249,-0.0261,-0.0188,-0.0206,-0.0099,-0.0128,-0.0081,0.0037,0.0077,0.0044,0.014,0.0145,0.019,0.0183,0.0191,0.0348,0.0212,0.0213,0.0213,0,-0.0301,-0.0336,-0.0436,-0.0451,-0.0459,-0.0487,-0.0483,-0.0468,-0.0435,-0.0418,-0.0425,-0.04,-0.0327,-0.0284,-0.0115,-0.0155,-0.0034,0.0064,0.0071,0.0153,0.0215,0.0343,0.0358,0.0217,0.0217,0.0217,0.0216,0,-0.0349,-0.0404,-0.0506,-0.0516,-0.0535,-0.0577,-0.0581,-0.0551,-0.0537,-0.0583,-0.0596,-0.0546,-0.052,-0.0412,-0.017,-0.0176,0.0015,0.0026,0.0211,0.0223,0.0259,0.0274,0.0099,0.0099,0.0099,0.0098,0.0098,0,-0.0396,-0.0469,-0.0571,-0.0636,-0.071,-0.0688,-0.0767,-0.0755,-0.0758,-0.0745,-0.0733,-0.0724,-0.0565,-0.0429,-0.0236,0.0025,-0.0039,0.0208,0.0248,0.0244,0.0254,0.0147,0.015,0.0105,0.0104,0.0102,0.0101,0,-0.0445,-0.0528,-0.064,-0.0737,-0.0763,-0.083,-0.0857,-0.0878,-0.09,-0.0907,-0.0931,-0.0829,-0.0664,-0.0462,-0.0229,-0.0032,0.0175,0.0273,0.0314,0.0354,0.0421,0.0419,0.0489,0.0492,0.0495,0.0498,0.05,0,-0.0497,-0.0577,-0.0726,-0.078,-0.086,-0.0937,-0.0946,-0.0954,-0.0949,-0.0939,-0.0915,-0.083,-0.07,-0.0321,-0.0005,0.0313,0.026,0.0493,0.0475,0.0417,0.045,0.0442,0.0436,0.0541,0.0543,0.0545,0.0546,0,-0.0575,-0.0659,-0.0754,-0.086,-0.0937,-0.0957,-0.0999,-0.0996,-0.0972,-0.0972,-0.0925,-0.0874,-0.0529,-0.0174,0.0221,0.0393,0.0433,0.0541,0.0428,0.0426,0.0474,0.0504,0.0494,0.0562,0.056,0.0559,0.0558,0.0558,-0.0635,-0.0713,-0.0838,-0.092,-0.0977,-0.0981,-0.0986,-0.0968,-0.0953,-0.0897,-0.0864,-0.0634,-0.0414,0.0251,0.0394,0.06,0.0632,0.0691,0.0681,0.067,0.0629,0.0677,0.0803,0.0803,0.0802,0.0802,0.0802,0,-0.0684,-0.0773,-0.0851,-0.0954,-0.0969,-0.1001,-0.0986,-0.0935,-0.0898,-0.0787,-0.0729,-0.0285,0.0047,0.0296,0.069,0.0822,0.0753,0.0763,0.0669,0.0658,0.0646,0.0597,0.0766,0.0765,0.0764,0.0763,0,0,-0.0735,-0.0815,-0.0848,-0.0911,-0.0962,-0.0968,-0.0952,-0.0869,-0.0762,-0.0565,-0.0299,-0.0128,0.0214,0.0452,0.0531,0.0682,0.0587,0.0643,0.0677,0.0535,0.0519,0.0637,0.0554,0,0,0,0,0]}],[{"header":{"parameterUnit":"m.s-1","parameterCategory":2,"la1":30.2991,"la2":30.254,"lo1":-89.0895,"lo2":-89.0444,"dx":0.0017,"dy":0.0017,"nx":28,"ny":28,"refTime":"2023-01-22T03:00:00:Z","depth":"4","parameterNumber":2,"parameterNumberName":"U-component_of_CURRENTS"},"data":[0,0,0,0,0,0,0,0,0,0,0,0,0,0,0,0,0,0,0,0,0,0,0,0,0,0,0,0,0,0,0,0,0,0,0,0,0,0,0,0,0,0,0,0,0,0,0,0,0,0,0,0,0,0,0,0,0,0,-0.1266,-0.1267,0,-0.1318,-0.1318,-0.1319,-0.1357,-0.1357,-0.1357,-0.1358,-0.1439,-0.1441,-0.1443,0,0,0,0,0,0,0,0,0,0,0,0,0,-0.1201,-0.1202,-0.1266,-0.1267,-0.1267,-0.1318,-0.1318,-0.1319,-0.1357,-0.1357,-0.1357,-0.1358,-0.1438,-0.144,-0.1443,0,0,0,0,0,0,0,0,0,0,0,0,0,-0.1239,-0.1202,-0.1266,-0.1292,-0.1295,-0.1317,-0.1318,-0.1319,-0.1357,-0.1357,-0.1358,-0.1358,-0.1437,-0.144,-0.1443,-0.1452,0,0,-0.1452,-0.1453,0,0,0,0,0,0,0,0,-0.1237,-0.1241,-0.1287,-0.129,-0.1293,-0.1331,-0.1325,-0.1365,-0.1357,-0.1334,-0.1358,-0.1358,-0.1405,-0.141,-0.1419,-0.1456,-0.1459,-0.1452,-0.1454,-0.1455,-0.1456,0,0,0,0,0,0,0,-0.1234,-0.1239,-0.1287,-0.1288,-0.1291,-0.1301,-0.1307,-0.1333,-0.1367,-0.1336,-0.1338,-0.1343,-0.1407,-0.1417,-0.1422,-0.1461,-0.1452,-0.1454,-0.1456,-0.1457,-0.1573,-0.1574,0,0,0,0,0,0,-0.1226,-0.1237,-0.1285,-0.1288,-0.1265,-0.1302,-0.1308,-0.1319,-0.1366,-0.1374,-0.1343,-0.1345,-0.1411,-0.1418,-0.1425,-0.1506,-0.1455,-0.1458,-0.1459,-0.1571,-0.1573,-0.1574,0,0,0,0,0,0,-0.1225,-0.123,-0.1283,-0.1263,-0.127,-0.1302,-0.1314,-0.1319,-0.1351,-0.1371,-0.1379,-0.137,-0.1412,-0.1421,-0.1474,-0.1507,-0.1459,-0.1461,-0.157,-0.1572,-0.1574,-0.1626,0,0,0,0,0,0,-0.1223,-0.123,-0.1242,-0.1263,-0.1271,-0.1315,-0.1313,-0.132,-0.1351,-0.1355,-0.1397,-0.1404,-0.1413,-0.1469,-0.1476,-0.151,-0.1464,-0.1568,-0.1571,-0.1573,-0.1623,-0.163,-0.1636,0,0,0,0,0,-0.122,-0.1233,-0.1242,-0.1249,-0.1285,-0.1316,-0.1323,-0.1346,-0.1352,-0.1374,-0.1405,-0.1404,-0.149,-0.1473,-0.1481,-0.1516,-0.1567,-0.157,-0.1573,-0.162,-0.1628,-0.1636,0,0,0,0,0,0,-0.1212,-0.1239,-0.1249,-0.1271,-0.13,-0.1323,-0.1343,-0.1358,-0.1398,-0.1407,-0.1424,-0.1434,-0.1489,-0.1496,-0.1476,-0.1556,-0.1527,-0.1532,-0.156,-0.1568,-0.1574,-0.1555,-0.1466,0,0,0,0,0,-0.1214,-0.1234,-0.1261,-0.1281,-0.1296,-0.1323,-0.1341,-0.136,-0.1392,-0.141,-0.1441,-0.1472,-0.1504,-0.1531,-0.1556,-0.1605,-0.158,-0.1631,-0.1638,-0.1643,-0.1633,-0.1628,-0.1633,-0.1584,-0.1584,-0.1584,0,0,-0.1213,-0.1234,-0.1243,-0.1281,-0.1304,-0.1334,-0.1337,-0.1372,-0.1406,-0.1413,-0.1474,-0.1496,-0.1521,-0.1574,-0.1599,-0.1589,-0.1646,-0.1647,-0.1652,-0.1638,-0.1632,-0.1636,-0.164,-0.1586,-0.1586,-0.1586,0,0,-0.122,-0.1244,-0.1263,-0.1288,-0.1329,-0.1353,-0.1368,-0.1409,-0.1439,-0.1495,-0.1507,-0.1547,-0.1605,-0.1626,-0.1643,-0.17,-0.1675,-0.1716,-0.1743,-0.174,-0.1743,-0.1746,-0.1721,-0.1721,-0.1726,-0.1726,-0.1726,0,-0.1222,-0.1248,-0.1274,-0.13,-0.1323,-0.1364,-0.1393,-0.1431,-0.1487,-0.1511,-0.1524,-0.16,-0.1625,-0.1677,-0.1701,-0.1714,-0.1699,-0.1713,-0.1747,-0.1749,-0.175,-0.1725,-0.1724,-0.1729,-0.1729,-0.1728,-0.1728,0,-0.1234,-0.1266,-0.1282,-0.133,-0.1361,-0.1395,-0.1444,-0.149,-0.1532,-0.1561,-0.1626,-0.1662,-0.17,-0.1726,-0.1736,-0.1772,-0.1752,-0.1749,-0.1723,-0.1758,-0.1729,-0.1727,-0.1733,-0.1732,-0.1731,-0.173,0,0,-0.1218,-0.1278,-0.1288,-0.1311,-0.138,-0.1403,-0.147,-0.153,-0.1565,-0.163,-0.1669,-0.1738,-0.1748,-0.1766,-0.1788,-0.1799,-0.1807,-0.1787,-0.1785,-0.1754,-0.1784,-0.164,-0.1623,-0.1813,-0.1813,-0.1813,-0.1758,0,-0.1227,-0.1273,-0.1306,-0.1358,-0.1386,-0.1441,-0.1493,-0.1552,-0.1608,-0.1659,-0.1706,-0.1748,-0.1768,-0.1788,-0.1807,-0.181,-0.1804,-0.182,-0.176,-0.1758,-0.1618,-0.1617,-0.1814,-0.1757,-0.1756,-0.1756,-0.1756,0,-0.1229,-0.1262,-0.1309,-0.1368,-0.1384,-0.1424,-0.1502,-0.1551,-0.163,-0.167,-0.1723,-0.1753,-0.1799,-0.1798,-0.1813,-0.1825,-0.1801,-0.1795,-0.1792,-0.1632,-0.1609,-0.1714,-0.1752,-0.1752,-0.1752,-0.1753,-0.1753,0,-0.1193,-0.1263,-0.1299,-0.132,-0.1395,-0.1428,-0.1474,-0.1554,-0.1587,-0.1669,-0.1688,-0.1755,-0.1773,-0.1782,-0.1787,-0.1798,-0.1777,-0.1786,-0.1626,-0.1616,-0.1741,-0.1739,-0.176,-0.176,-0.176,-0.176,-0.176,0,-0.1175,-0.1204,-0.1287,-0.1299,-0.1336,-0.1402,-0.1451,-0.1501,-0.1573,-0.1582,-0.1679,-0.1683,-0.1767,-0.1773,-0.1777,-0.1689,-0.1765,-0.1609,-0.1586,-0.1766,-0.1767,-0.1739,-0.1738,-0.1758,-0.1759,-0.1759,-0.1759,0,-0.1109,-0.1172,-0.1209,-0.1292,-0.1315,-0.1336,-0.1412,-0.1439,-0.1517,-0.153,-0.1547,-0.1627,-0.1615,-0.1673,-0.1676,-0.1638,-0.1597,-0.154,-0.1716,-0.1707,-0.1438,-0.1441,-0.1343,-0.1337,-0.1333,-0.1329,-0.1325,0,-0.1074,-0.1093,-0.1175,-0.1187,-0.1221,-0.1273,-0.1301,-0.1396,-0.141,-0.1464,-0.1442,-0.1466,-0.1499,-0.1395,-0.1478,-0.1456,-0.1439,-0.1415,-0.1432,-0.1405,-0.1393,-0.1403,-0.1412,-0.1318,-0.1316,-0.1315,-0.1314,0,-0.0994,-0.1036,-0.1057,-0.1083,-0.1116,-0.1148,-0.1188,-0.1192,-0.127,-0.1347,-0.1277,-0.1266,-0.1242,-0.1268,-0.126,-0.1254,-0.1442,-0.1365,-0.1375,-0.139,-0.1373,-0.1368,-0.1382,-0.1297,-0.1299,-0.1301,-0.1302,0,-0.0928,-0.0909,-0.0941,-0.0953,-0.0995,-0.0996,-0.1049,-0.1044,-0.107,-0.1129,-0.1095,-0.113,-0.1193,-0.1157,-0.1157,-0.1136,-0.1114,-0.1091,-0.1115,-0.1134,-0.1097,-0.1048,-0.0828,0,0,0,0,0,-0.0844,-0.0803,-0.0803,-0.081,-0.0858,-0.0875,-0.0949,-0.1011,-0.1091,-0.0984,-0.1032,-0.0993,-0.0962,-0.1006,-0.0939,-0.1084,-0.1145,-0.1004,-0.1137,-0.1204,-0.1223,-0.1203,0,0,0,0,0,0,-0.0774,-0.0763,-0.075,-0.0699,-0.0682,-0.0711,-0.0761,-0.0824,-0.0783,-0.086,-0.0854,-0.0897,-0.0903,-0.0955,-0.0899,-0.0912,-0.0968,-0.1035,-0.1032,-0.1193,-0.121,-0.1226,-0.1212,0,0,0,0,0]},{"header":{"parameterUnit":"m.s-1","parameterCategory":2,"la1":30.2991,"la2":30.254,"lo1":-89.0895,"lo2":-89.0444,"dx":0.0017,"dy":0.0017,"nx":28,"ny":28,"refTime":"2023-01-22T03:00:00:Z","depth":"4","parameterNumber":3,"parameterNumberName":"V-component_of_CURRENTS"},"data":[0,0,0,0,0,0,0,0,0,0,0,0,0,0,0,0,0,0,0,0,0,0,0,0,0,0,0,0,0,0,0,0,0,0,0,0,0,0,0,0,0,0,0,0,0,0,0,0,0,0,0,0,0,0,0,0,0,0,0.016,0.016,0,0.0163,0.0163,0.0163,0.0189,0.0189,0.019,0.019,0.0235,0.0235,0.0236,0,0,0,0,0,0,0,0,0,0,0,0,0,0.0209,0.0208,0.016,0.016,0.016,0.0163,0.0163,0.0163,0.0189,0.0189,0.019,0.0191,0.0235,0.0235,0.0236,0,0,0,0,0,0,0,0,0,0,0,0,0,0.0198,0.0208,0.0161,0.0173,0.0174,0.0163,0.0163,0.0163,0.0189,0.0189,0.019,0.0191,0.0234,0.0235,0.0236,0.0226,0,0,0.0239,0.024,0,0,0,0,0,0,0,0,0.0199,0.0197,0.0171,0.0172,0.0173,0.0175,0.0196,0.0186,0.0188,0.0184,0.019,0.0191,0.0217,0.022,0.022,0.0229,0.023,0.0239,0.024,0.0241,0.0241,0,0,0,0,0,0,0,0.02,0.0197,0.0163,0.0171,0.0172,0.0188,0.0187,0.0194,0.0198,0.0185,0.0186,0.0184,0.0218,0.0219,0.0221,0.0231,0.0239,0.024,0.0241,0.0241,0.0263,0.0263,0,0,0,0,0,0,0.0194,0.0197,0.0163,0.0163,0.0187,0.0186,0.0186,0.0175,0.0197,0.0201,0.0184,0.0185,0.0216,0.022,0.0223,0.0226,0.0241,0.0241,0.0242,0.0263,0.0263,0.0263,0,0,0,0,0,0,0.0195,0.0191,0.0162,0.018,0.0177,0.0184,0.0172,0.0174,0.0177,0.0195,0.02,0.0184,0.0217,0.0221,0.0228,0.0228,0.0242,0.0243,0.0263,0.0263,0.0263,0.0225,0,0,0,0,0,0,0.0196,0.0191,0.0183,0.0179,0.0176,0.0148,0.0171,0.0174,0.0174,0.0176,0.0197,0.0202,0.0218,0.0226,0.0229,0.0229,0.0244,0.0263,0.0263,0.0263,0.0226,0.0223,0.0221,0,0,0,0,0,0.0198,0.0177,0.0183,0.0179,0.0164,0.0147,0.0146,0.0156,0.0173,0.0164,0.0184,0.0202,0.0228,0.0226,0.023,0.0231,0.0263,0.0263,0.0263,0.0227,0.0224,0.0221,0,0,0,0,0,0,0.0193,0.0178,0.0184,0.016,0.0152,0.0151,0.0143,0.0153,0.0161,0.0167,0.0194,0.0199,0.0204,0.0222,0.022,0.0238,0.0251,0.0252,0.0223,0.022,0.0218,0.0215,0.0245,0,0,0,0,0,0.0188,0.0171,0.0161,0.0143,0.0137,0.0142,0.0139,0.0142,0.0147,0.0152,0.0167,0.0188,0.0204,0.0216,0.0225,0.0233,0.0263,0.0239,0.0236,0.0234,0.0235,0.0297,0.0301,0.0263,0.0263,0.0263,0,0,0.0183,0.0172,0.0163,0.0142,0.0139,0.0114,0.0142,0.0127,0.0116,0.0155,0.0148,0.0172,0.0202,0.0208,0.0214,0.0226,0.0255,0.0234,0.0232,0.0234,0.0298,0.0301,0.0305,0.0262,0.0262,0.0262,0,0,0.0153,0.015,0.0123,0.0112,0.0098,0.0095,0.0089,0.0084,0.0093,0.0088,0.0118,0.0149,0.0158,0.0192,0.021,0.0202,0.0233,0.02,0.0193,0.0253,0.0257,0.0261,0.0278,0.0284,0.0208,0.0207,0.0207,0,0.015,0.011,0.0114,0.0083,0.0069,0.0083,0.005,0.0055,0.0055,0.0069,0.0079,0.013,0.0156,0.0191,0.0189,0.0198,0.0219,0.02,0.0251,0.0255,0.026,0.0277,0.0284,0.0206,0.0206,0.0206,0.0206,0,0.0097,0.0067,0.0049,0.0014,0.0001,-0.0026,-0.0024,-0.0029,-0.0012,0.001,0.0044,0.009,0.0128,0.0144,0.0162,0.0208,0.0205,0.0233,0.0258,0.0262,0.0279,0.0287,0.0203,0.0204,0.0204,0.0205,0,0,0.0081,0.0023,0.0016,-0.0012,-0.0038,-0.0058,-0.0075,-0.0077,-0.0073,-0.004,-0.0014,0.0037,0.0083,0.0107,0.0149,0.0208,0.0254,0.0229,0.0233,0.0244,0.0354,0.0334,0.0341,0.0291,0.0293,0.0294,0.0343,0,0.0038,-0.0035,-0.0049,-0.0112,-0.015,-0.0144,-0.016,-0.0151,-0.0124,-0.0096,-0.0011,0.0023,0.0064,0.0088,0.0155,0.0228,0.0277,0.0236,0.035,0.0353,0.0335,0.0351,0.03,0.0349,0.0351,0.0352,0.0353,0,-0.001,-0.0055,-0.0127,-0.0179,-0.0192,-0.0222,-0.0235,-0.0244,-0.019,-0.0161,-0.0093,-0.0033,0.0053,0.0093,0.023,0.0199,0.0267,0.033,0.0335,0.0339,0.035,0.0352,0.0368,0.0367,0.0366,0.0365,0.0364,0,-0.0029,-0.0107,-0.0166,-0.0186,-0.0241,-0.0261,-0.0279,-0.0257,-0.0253,-0.0193,-0.0172,-0.0062,0.0001,0.0109,0.0239,0.0232,0.0393,0.0403,0.0447,0.0444,0.0464,0.0459,0.0503,0.0503,0.0503,0.0503,0.0503,0,-0.007,-0.0117,-0.0182,-0.0215,-0.0272,-0.0292,-0.0321,-0.0319,-0.0295,-0.0269,-0.02,-0.0145,0.0013,0.0125,0.0229,0.0361,0.0389,0.0445,0.0467,0.0441,0.0434,0.0468,0.0463,0.0504,0.0504,0.0504,0.0503,0,-0.0079,-0.0128,-0.0193,-0.026,-0.0285,-0.0317,-0.036,-0.0363,-0.0355,-0.032,-0.0302,-0.0193,-0.0045,0.01,0.029,0.0346,0.0475,0.0516,0.0453,0.047,0.0477,0.0469,0.0547,0.0547,0.0547,0.0547,0.0547,0,-0.0094,-0.0133,-0.0213,-0.0242,-0.0275,-0.0328,-0.0353,-0.0381,-0.0375,-0.0334,-0.0302,-0.0177,-0.0081,0.0167,0.0302,0.048,0.0511,0.0533,0.0524,0.0473,0.0487,0.0479,0.0472,0.0547,0.0547,0.0547,0.0547,0,-0.0111,-0.0132,-0.0176,-0.0224,-0.0269,-0.032,-0.0356,-0.0369,-0.0372,-0.038,-0.0266,-0.0153,0.0012,0.0193,0.0331,0.046,0.0492,0.0533,0.0533,0.0525,0.0474,0.0486,0.0479,0.0547,0.0547,0.0547,0.0547,0,-0.0101,-0.0123,-0.0157,-0.0186,-0.0235,-0.0265,-0.0317,-0.0304,-0.0314,-0.0283,-0.0235,-0.0081,0.001,0.0183,0.0315,0.0433,0.045,0.0452,0.0457,0.0458,0.0417,0.0338,0.0393,0,0,0,0,0,-0.0081,-0.008,-0.0111,-0.0139,-0.0171,-0.0186,-0.0277,-0.0322,-0.0351,-0.0261,-0.025,-0.009,0.01,0.0182,0.0305,0.0297,0.0453,0.0435,0.0455,0.0546,0.0546,0.0512,0,0,0,0,0,0,-0.0075,-0.0088,-0.0088,-0.0061,-0.0048,-0.0089,-0.0141,-0.0185,-0.0148,-0.0163,-0.0042,-0.0045,0.0161,0.01,0.0342,0.0365,0.0383,0.0515,0.0516,0.0546,0.0546,0.0546,0.0511,0,0,0,0,0]}]]